Date String (YYYY-MM-DD hh:mm:ss) UTC,Instrument flags,absolute air pressure of the measurement (hPa),sample flow rate (lpm),inlet stack bypass flow (lpm),air temperature of the measurement (°C),ambient temperature measured by the external sensor (°C),aerosol sample conditioner tube jacket temperature (°C),OPC LED temperature (°C),internal box temperature (°C),relative humidity of the measurement (%),span deviation,mass concentration of particles derived from Lorenz-Mie calculation of OPC scattering (μg/m³),mass concentration of particles derived from Lorenz-Mie calculation of OPC scattering (μg/m³),mass concentration of particles derived from Lorenz-Mie calculation of OPC scattering (μg/m³)
DateTimeUTC,F1_M11,P_M11,Q1_M11,Q2_M11,T1_M11,T2_M11,T3_M11,T4_M11,T5_M11,U1_M11,ZSPAN_M11,X0_M11,X2_M11,X1_M11
2024-01-09 21:00:00,SystemResetWarning,0814.9,5.00,000.00,019.7,019.1,000.0,028.1,021.1,9.2,0000.0,0016.26,0004.91,0003.45
2024-01-09 21:01:00,SystemResetWarning,0814.9,4.99,000.00,019.7,019.1,000.0,028.1,021.0,9.2,0000.0,0015.78,0004.90,0003.43
2024-01-09 21:02:00,SystemResetWarning,0814.9,5.00,000.00,019.7,019.1,000.0,028.1,021.0,9.3,0000.0,0015.38,0004.82,0003.42
2024-01-09 21:03:00,SystemResetWarning,0814.9,5.01,000.00,019.7,019.1,000.0,028.1,021.1,9.3,0000.0,0014.67,0004.71,0003.39
2024-01-09 21:04:00,SystemResetWarning,0814.7,5.00,000.00,019.8,019.1,000.0,028.1,021.0,9.4,0000.0,0015.06,0004.68,0003.36
2024-01-09 21:05:00,SystemResetWarning,0814.7,5.00,000.00,019.8,019.1,000.0,028.1,021.1,9.4,0000.0,0015.20,0004.68,0003.34
2024-01-09 21:06:00,SystemResetWarning,0814.8,5.01,000.00,019.8,019.2,000.0,028.1,021.1,9.6,0000.0,0015.13,0004.63,0003.33
2024-01-09 21:07:00,SystemResetWarning,0814.8,4.99,000.00,019.8,019.2,000.0,028.1,021.1,9.9,0000.0,0015.73,0004.60,0003.32
2024-01-09 21:08:00,SystemResetWarning,0814.7,5.00,000.00,019.8,019.2,000.0,028.1,021.1,9.8,0000.0,0015.99,0004.64,0003.32
2024-01-09 21:09:00,SystemResetWarning,0814.6,4.99,000.00,019.8,019.2,000.0,028.1,021.1,9.6,0000.0,0016.18,0004.63,0003.32
2024-01-09 21:10:00,SystemResetWarning,0814.6,5.00,000.00,019.8,019.2,000.0,028.1,021.1,9.6,0000.0,0016.54,0004.62,0003.31
2024-01-09 21:11:00,SystemResetWarning,0814.7,5.00,000.00,019.8,019.2,000.0,028.1,021.2,9.8,0000.0,0016.85,0004.62,0003.31
2024-01-09 21:12:00,SystemResetWarning,0814.7,5.00,000.00,019.8,019.2,000.0,028.1,021.2,10.0,0000.0,0016.65,0004.58,0003.32
2024-01-09 21:13:00,SystemResetWarning,0814.5,5.01,000.00,019.8,019.2,000.0,028.1,021.2,10.0,0000.0,0016.33,0004.57,0003.32
2024-01-09 21:14:00,SystemResetWarning,0814.4,5.01,000.00,019.8,019.2,000.0,028.1,021.2,9.9,0000.0,0017.36,0004.64,0003.32
2024-01-09 21:15:00,SystemResetWarning,0814.5,5.00,000.00,019.9,019.2,000.0,028.1,021.2,9.9,0000.0,0017.05,0004.63,0003.33
2024-01-09 21:16:00,SystemResetWarning,0814.6,5.00,000.00,019.9,019.3,000.0,028.1,021.2,9.9,0000.0,0016.80,0004.66,0003.32
2024-01-09 21:17:00,SystemResetWarning,0814.6,5.00,000.00,019.9,019.3,000.0,028.1,021.2,9.9,0000.0,0016.40,0004.66,0003.32
2024-01-09 21:18:00,SystemResetWarning,0814.4,5.00,000.00,019.9,019.3,000.0,028.2,021.2,9.8,0000.0,0016.40,0004.69,0003.31
2024-01-09 21:19:00,SystemResetWarning,0814.3,4.99,000.00,019.9,019.3,000.0,028.2,021.2,9.8,0000.0,0016.57,0004.68,0003.31
2024-01-09 21:20:00,SystemResetWarning,0814.3,5.00,000.00,019.9,019.3,000.0,028.2,021.2,9.9,0000.0,0018.42,0004.69,0003.31
2024-01-09 21:21:00,SystemResetWarning,0814.3,5.01,000.00,019.9,019.3,000.0,028.2,021.2,9.9,0000.0,0017.96,0004.69,0003.31
2024-01-09 21:22:00,SystemResetWarning,0814.3,5.01,000.00,019.9,019.3,000.0,028.2,021.2,10.0,0000.0,0015.79,0004.63,0003.31
2024-01-09 21:23:00,SystemResetWarning,0814.2,5.00,000.00,019.9,019.3,000.0,028.2,021.1,10.1,0000.0,0016.02,0004.62,0003.29
2024-01-09 21:24:00,SystemResetWarning,0814.2,4.99,000.00,019.9,019.3,000.0,028.2,021.2,10.2,0000.0,0015.87,0004.57,0003.28
2024-01-09 21:25:00,SystemResetWarning,0814.3,4.99,000.00,019.9,019.3,000.0,028.2,021.1,10.2,0000.0,0016.03,0004.56,0003.27
2024-01-09 21:26:00,SystemResetWarning,0814.3,4.99,000.00,019.9,019.3,000.0,028.2,021.1,10.2,0000.0,0015.10,0004.53,0003.24
2024-01-09 21:27:00,SystemResetWarning,0814.2,5.00,000.00,019.9,019.2,000.0,028.2,021.1,10.3,0000.0,0015.17,0004.46,0003.22
2024-01-09 21:28:00,SystemResetWarning,0814.2,5.01,000.00,019.9,019.2,000.0,028.2,021.0,10.4,0000.0,0015.49,0004.40,0003.20
2024-01-09 21:29:00,SystemResetWarning,0814.1,5.00,000.00,019.9,019.1,000.0,028.2,020.9,10.4,0000.0,0015.59,0004.32,0003.16
2024-01-09 21:30:00,SystemResetWarning,0814.3,5.00,000.00,019.8,019.1,000.0,028.2,020.9,10.4,0000.0,0015.21,0004.24,0003.13
2024-01-09 21:31:00,SystemResetWarning,0814.3,4.99,000.00,019.8,019.1,000.0,028.2,021.0,10.4,0000.0,0015.14,0004.18,0003.10
2024-01-09 21:32:00,SystemResetWarning,0814.3,4.99,000.00,019.8,019.1,000.0,028.2,021.0,10.3,0000.0,0013.94,0004.08,0003.03
2024-01-09 21:33:00,SystemResetWarning,0814.3,4.99,000.00,019.8,019.1,000.0,028.2,021.0,10.4,0000.0,0013.93,0004.02,0002.95
2024-01-09 21:34:00,SystemResetWarning,0814.3,5.01,000.00,019.8,019.1,000.0,028.2,021.0,10.5,0000.0,0013.97,0003.94,0002.86
2024-01-09 21:35:00,SystemResetWarning,0814.3,5.01,000.00,019.8,019.1,000.0,028.2,021.0,10.5,0000.0,0014.33,0003.88,0002.77
2024-01-09 21:36:00,SystemResetWarning,0814.3,5.01,000.00,019.8,019.1,000.0,028.2,021.0,10.5,0000.0,0015.20,0003.78,0002.65
2024-01-09 21:37:00,SystemResetWarning,0814.2,4.99,000.00,019.8,019.1,000.0,028.2,021.0,10.7,0000.0,0015.07,0003.61,0002.53
2024-01-09 21:38:00,SystemResetWarning,0814.3,4.99,000.00,019.8,019.1,000.0,028.2,021.0,10.7,0000.0,0014.68,0003.52,0002.41
2024-01-09 21:39:00,SystemResetWarning,0814.4,5.00,000.00,019.8,019.1,000.0,028.2,021.0,10.6,0000.0,0013.93,0003.45,0002.30
2024-01-09 21:40:00,SystemResetWarning,0814.3,5.01,000.00,019.8,019.1,000.0,028.2,021.1,10.5,0000.0,0013.42,0003.36,0002.21
2024-01-09 21:41:00,SystemResetWarning,0814.3,5.01,000.00,019.8,019.1,000.0,028.2,021.1,10.4,0000.0,0012.72,0003.28,0002.14
2024-01-09 21:42:00,SystemResetWarning,0814.3,5.01,000.00,019.8,019.2,000.0,028.2,021.0,10.4,0000.0,0012.01,0003.20,0002.07
2024-01-09 21:43:00,SystemResetWarning,0814.3,4.98,000.00,019.8,019.2,000.0,028.1,021.0,10.4,0000.0,0011.30,0003.13,0002.01
2024-01-09 21:44:00,SystemResetWarning,0814.3,4.99,000.00,019.8,019.2,000.0,028.2,021.0,10.4,0000.0,0011.33,0003.08,0002.01
2024-01-09 21:45:00,SystemResetWarning,0814.3,5.01,000.00,019.8,019.2,000.0,028.2,021.1,10.3,0000.0,0011.80,0003.07,0002.02
2024-01-09 21:46:00,SystemResetWarning,0814.3,5.01,000.00,019.8,019.2,000.0,028.2,021.1,10.3,0000.0,0011.08,0003.11,0002.03
2024-01-09 21:47:00,SystemResetWarning,0814.4,5.00,000.00,019.8,019.2,000.0,028.2,021.1,10.2,0000.0,0009.73,0003.16,0002.07
2024-01-09 21:48:00,SystemResetWarning,0814.3,4.99,000.00,019.8,019.2,000.0,028.2,021.1,10.1,0000.0,0009.44,0003.21,0002.11
2024-01-09 21:49:00,SystemResetWarning,0814.3,4.99,000.00,019.8,019.2,000.0,028.2,021.0,10.2,0000.0,0010.36,0003.22,0002.13
2024-01-09 21:50:00,SystemResetWarning,0814.3,5.00,000.00,019.8,019.2,000.0,028.2,021.0,10.1,0000.0,0010.23,0003.19,0002.12
2024-01-09 21:51:00,SystemResetWarning,0814.3,5.01,000.00,019.8,019.1,000.0,028.2,020.9,10.1,0000.0,0010.34,0003.15,0002.11
2024-01-09 21:52:00,SystemResetWarning,0814.3,5.00,000.00,019.8,019.1,000.0,028.2,020.9,10.1,0000.0,0010.28,0003.14,0002.10
2024-01-09 21:53:00,SystemResetWarning,0814.2,5.01,000.00,019.8,019.1,000.0,028.1,020.8,10.2,0000.0,0010.23,0003.15,0002.10
2024-01-09 21:54:00,SystemResetWarning,0814.3,5.00,000.00,019.8,019.0,000.0,028.1,020.8,10.2,0000.0,0009.86,0003.15,0002.13
2024-01-09 21:55:00,SystemResetWarning,0814.3,5.00,000.00,019.8,019.0,000.0,028.1,020.9,10.4,0000.0,0009.93,0003.13,0002.13
2024-01-09 21:56:00,SystemResetWarning,0814.2,5.00,000.00,019.8,019.0,000.0,028.1,021.0,10.5,0000.0,0009.61,0003.07,0002.07
2024-01-09 21:57:00,SystemResetWarning,0814.3,4.99,000.00,019.8,019.0,000.0,028.1,021.0,10.7,0000.0,0009.10,0002.96,0002.03
2024-01-09 21:58:00,SystemResetWarning,0814.2,5.00,000.00,019.8,019.1,000.0,028.1,021.0,10.7,0000.0,0008.88,0002.91,0002.01
2024-01-09 21:59:00,SystemResetWarning,0814.2,5.00,000.00,019.8,019.1,000.0,028.1,021.0,10.6,0000.0,0009.02,0002.89,0001.98
